Barcelona, Spain

9:15 AM CET on February 09, 2016 (GMT +0100)
El Prat

Weather History for LEBL - September, 2013

Change the Weather History Date:

Thursday, September 5, 2013

  Actual Average Record
Temperature  
Mean Temperature 73 °F -  
Max Temperature 81 °F 74 °F 87 °F (2012)
Min Temperature 65 °F 61 °F 60 °F (2015)
Cooling Degree Days 8    
Growing Degree Days 23 (Base 50)    
Moisture  
Dew Point 62 °F    
Average Humidity 65    
Maximum Humidity 78    
Minimum Humidity 45    
Precipitation  
Precipitation 0.00 in 0.11 in - ()
Sea Level Pressure  
Sea Level Pressure 29.99 in    
Wind  
Wind Speed 7 mph ()    
Max Wind Speed 12 mph    
Max Gust Speed -    
Visibility 10.4 miles    
Events      
Averages and records for this station are not official NWS values.
T = Trace of Precipitation, MM = Missing Value Source: Averaged Metar Reports

Daily Weather History Graph

Daily Weather History Graph

Search for Another Location

Airport or City:

Trip Planner

Search our weather history database for the weather conditions in past years. The results will help you decide how hot, cold, wet, or windy it might be!

Date:

Astronomy

Sep. 05, 2013 Rise Set
Actual Time 7:22 AM CEST 8:17 PM CEST
Civil Twilight 6:53 AM CEST 8:45 PM CEST
Nautical Twilight 6:20 AM CEST 9:19 PM CEST
Astronomical Twilight 5:45 AM CEST 9:54 PM CEST
Moon 7:18 AM CEST (9/5) 8:00 PM CEST (9/5)
Length of Visible Light 13h 51m
Length of Day
12h 55m
Waning Crescent, 0% of the Moon is Illuminated
Sep 5
Waning Crescent
Sep 5
New
Sep 12
First Quarter
Sep 19
Full
Sep 27
Last Quarter

Hourly Weather History & Observations

Time (CEST) Temp. Heat Index Dew Point Humidity Pressure Visibility Wind Dir Wind Speed Gust Speed Precip Events Conditions
12:00 AM 73.4 °F - 64.4 °F 73% 30.09 in - NW 4.6 mph - N/A   Clear
12:30 AM 71.6 °F - 64.4 °F 78% 30.09 in - NNW 3.5 mph - N/A   Clear
1:00 AM 71.6 °F - 64.4 °F 78% 30.09 in - NNW 4.6 mph - N/A   Clear
1:30 AM 71.6 °F - 64.4 °F 78% 30.09 in - NNW 6.9 mph - N/A   Clear
2:00 AM 70 °F - 64 °F 77% 30.08 in 16 mi North 5.8 mph - -  
2:00 AM 71.6 °F - 62.6 °F 73% 30.06 in - NNW 6.9 mph - N/A   Clear
2:30 AM 69.8 °F - 62.6 °F 78% 30.06 in - NW 6.9 mph - N/A   Clear
3:00 AM 69.8 °F - 62.6 °F 78% 30.06 in - NNW 6.9 mph - N/A   Clear
3:30 AM 69.8 °F - 62.6 °F 78% 30.04 in - NW 8.1 mph - N/A   Clear
4:00 AM 69.8 °F - 62.6 °F 78% 30.04 in - NNW 6.9 mph - N/A   Clear
4:30 AM 69.8 °F - 62.6 °F 78% 30.04 in - NNW 6.9 mph - N/A   Clear
5:00 AM 69.8 °F - 60.8 °F 73% 30.04 in - NW 9.2 mph - N/A   Clear
5:30 AM 68.0 °F - 60.8 °F 78% 30.04 in - NNW 10.4 mph - N/A   Clear
6:00 AM 68.0 °F - 59.0 °F 73% 30.01 in - NNW 11.5 mph - N/A   Clear
6:30 AM 68.0 °F - 59.0 °F 73% 30.01 in - NNW 10.4 mph - N/A   Clear
7:00 AM 68.0 °F - 59.0 °F 73% 30.01 in - NW 11.5 mph - N/A   Clear
7:30 AM 66.2 °F - 59.0 °F 78% 30.01 in - NW 10.4 mph - N/A   Clear
8:00 AM 66 °F - 59 °F 72% 30.01 in 12 mi North 10.4 mph - -  
8:00 AM 66.2 °F - 57.2 °F 73% 30.01 in - NW 8.1 mph - N/A   Clear
8:30 AM 68.0 °F - 57.2 °F 68% 30.01 in - NW 9.2 mph - N/A   Clear
9:00 AM 68.0 °F - 57.2 °F 68% 30.01 in - NW 9.2 mph - N/A   Clear
9:30 AM 71.6 °F - 57.2 °F 60% 30.01 in - NW 9.2 mph - N/A   Clear
10:00 AM 73.4 °F - 57.2 °F 57% 30.01 in - NW 9.2 mph - N/A   Clear
10:30 AM 77.0 °F - 57.2 °F 50% 30.01 in - NW 8.1 mph - N/A   Clear
11:00 AM 78.8 °F - 57.2 °F 47% 30.01 in - NW 6.9 mph - N/A   Clear
11:30 AM 78.8 °F - 62.6 °F 57% 30.01 in - West 3.5 mph - N/A   Clear
12:00 PM 78.8 °F - 57.2 °F 47% 30.01 in - SSW 9.2 mph - N/A   Clear
12:30 PM 78.8 °F - 64.4 °F 61% 30.01 in - SSW 10.4 mph - N/A   Clear
1:00 PM 78.8 °F - 66.2 °F 65% 29.98 in - South 8.1 mph - N/A   Clear
1:30 PM 80.6 °F 81.1 °F 59.0 °F 48% 29.98 in 6.2 mi South 9.2 mph - N/A   Partly Cloudy
2:00 PM 81 °F - 63 °F 45% 29.99 in 19 mi South 10.4 mph - -   Scattered Clouds
2:00 PM 80.6 °F 81.5 °F 60.8 °F 51% 29.98 in 6.2 mi South 10.4 mph - N/A   Partly Cloudy
2:30 PM 80.6 °F 81.8 °F 62.6 °F 54% 29.98 in 6.2 mi South 10.4 mph - N/A   Partly Cloudy
3:00 PM 80.6 °F 83.2 °F 68.0 °F 65% 29.95 in 6.2 mi SSE 9.2 mph - N/A   Partly Cloudy
3:30 PM 80.6 °F 83.2 °F 68.0 °F 65% 29.95 in - South 9.2 mph - N/A   Clear
4:00 PM 80.6 °F 82.3 °F 64.4 °F 58% 29.95 in - SSW 10.4 mph - N/A   Clear
4:30 PM 80.6 °F 81.8 °F 62.6 °F 54% 29.95 in - South 9.2 mph - N/A   Clear
5:00 PM 80.6 °F 81.8 °F 62.6 °F 54% 29.95 in - SSW 10.4 mph - N/A   Clear
5:30 PM 80.6 °F 82.3 °F 64.4 °F 58% 29.95 in - SSW 9.2 mph - N/A   Clear
6:00 PM 80.6 °F 82.3 °F 64.4 °F 58% 29.95 in - SSW 9.2 mph - N/A   Clear
6:30 PM 78.8 °F - 64.4 °F 61% 29.95 in - SSW 9.2 mph - N/A   Clear
7:00 PM 78.8 °F - 64.4 °F 61% 29.92 in - SSW 9.2 mph - N/A   Clear
7:30 PM 78.8 °F - 64.4 °F 61% 29.92 in - SSW 6.9 mph - N/A   Clear
8:00 PM 78 °F - 66 °F 59% 29.92 in 11 mi SW 5.8 mph - -   Clear
8:00 PM 77.0 °F - 64.4 °F 65% 29.92 in - SSW 5.8 mph - N/A   Clear
8:30 PM 77.0 °F - 64.4 °F 65% 29.92 in - SSW 5.8 mph - N/A   Clear
9:00 PM 75.2 °F - 64.4 °F 69% 29.92 in - SSW 4.6 mph - N/A   Clear
9:30 PM 75.2 °F - 64.4 °F 69% 29.92 in - SSW 3.5 mph - N/A   Clear
10:00 PM 77.0 °F - 64.4 °F 65% 29.92 in - SSW 3.5 mph - N/A   Clear
10:30 PM 75.2 °F - 64.4 °F 69% 29.92 in - Variable 1.2 mph - N/A   Clear
11:00 PM 73.4 °F - 62.6 °F 69% 29.92 in - Variable 2.3 mph - N/A   Clear
11:30 PM 73.4 °F - 59.0 °F 61% 29.95 in - Variable 2.3 mph - N/A   Clear